Location: One Hoe
(18.0500°N, 63.0333°W)
Time: 00:38:04
(UTC+00:00)

Daily predictions for brighter satellites

Satellite Brightness Start Highest point End
(mag) Time Altitude Azimuth Time Altitude Azimuth Time Altitude Azimuth
Cosmos 2034 Rocket 4.3 00:01:59 10° SSW 00:08:16 66° W 00:14:36 10° N
H-2A R/B 3.2 00:10:43 16° SSW 00:14:08 37° W 00:18:42 10° NNW
NOSS 3-4 (A) 3.3 00:08:51 10° SSW 00:14:31 79° W 00:14:31 79° W
NOSS 3-4 (C) 3.3 00:08:58 10° SSW 00:14:27 76° WSW 00:14:27 76° WSW
ARGOS 3.7 00:16:41 45° SW 00:17:48 54° W 00:23:01 10° NNW
ATLAS 2AS CENTAUR R/B 3.2 00:29:06 10° SSW 00:36:44 68° WNW 00:40:32 34° N
Milstar 3 Cent rocket 3.6 00:32:51 10° W 00:37:15 30° NW 00:37:15 30° NW
Cosmos 2322 Rocket 3.1 07:40:39 43° ESE 07:40:48 43° ESE 07:46:07 10° NE
CZ-2C R/B 3.5 07:39:56 10° NNE 07:43:41 43° NE 07:43:41 43° NE
SL-16 R/B 2.6 07:49:28 58° NE 07:49:28 58° NE 07:54:09 10° NNE
FUSE 4.4 08:01:08 57° NNE 08:01:08 57° NNE 08:06:09 10° E
Meteor 1-14 Rocket 4.2 07:58:31 10° N 08:04:03 77° E 08:09:34 10° S
Yuri Rocket 3.3 08:11:20 70° ESE 08:11:20 70° ESE 08:16:12 10° ENE
Cosmos 1707 Rocket 4.0 08:12:24 52° SE 08:13:03 58° E 08:17:17 10° NNE
Cosmos 1238 Rocket 3.6 08:10:56 10° N 08:17:11 71° W 08:20:49 22° S
deb Chang Zheng 4 4.0 08:14:09 10° NNE 08:18:22 60° ESE 08:20:01 34° SSE
Cosmos 1777 Rocket 4.1 08:20:18 54° SSW 08:20:18 54° SSW 08:24:24 10° S
GPS 2-15 Rocket1 3.1 08:20:11 70° N 08:20:12 71° N 08:24:51 10° E
ADEOS Rocket 4.2 08:20:25 10° SSE 08:27:29 51° ENE 08:33:55 10° N
Intelsat 5-1 Rocket 3.5 08:27:00 36° SW 08:28:14 40° SSW 08:39:34 10° SE
IRIDIUM 114 4.2 08:25:17 10° N 08:30:30 89° E 08:35:43 10° S
Cosmos 1934 Rocket 4.1 08:25:59 10° NNW 08:31:40 44° W 08:37:25 10° SSW
Delta 202 3.5 08:33:45 46° WSW 08:35:20 79° S 08:40:43 10° E
GPS 2-18 Rocket1 3.4 08:36:21 52° NNW 08:36:47 55° N 08:40:41 10° ENE
ADEOS 3.4 08:32:54 10° N 08:38:06 75° WNW 08:43:17 10° SSW
IRIDIUM 103 4.2 08:34:26 10° N 08:39:37 72° W 08:44:48 10° S
Cosmos 1814 Rocket 4.1 08:38:20 10° S 08:43:27 76° ESE 08:48:37 10° NNE
Meteor 1-27 Rocket 3.8 08:40:47 10° SSW 08:46:33 58° W 08:52:22 10° N
Cosmos 1862 Rocket 3.8 08:42:27 10° S 08:46:51 69° E 08:51:13 10° N
Timation 1 Rocket 4.2 08:41:47 10° NNW 08:47:46 77° WSW 08:53:44 10° SSE
Meteor 1-11 Rocket 4.2 08:42:56 10° N 08:48:34 62° E 08:54:03 10° SSE
Cosmos 841 Rocket 3.4 08:43:51 11° SSW 08:48:44 69° WNW 08:53:55 10° N
Cosmos 1484 Rocket 2.7 08:45:55 10° N 08:49:53 70° W 08:53:51 10° SSW
ERS-2 1.9 08:46:28 10° S 08:50:06 74° WSW 08:53:44 10° NNW
Cosmos 1437 Rocket 4.3 08:46:51 10° SSE 08:50:20 36° E 08:53:49 10° NNE
ALOS 2.1 08:45:58 10° N 08:50:37 78° WNW 08:55:16 10° SSW
Cosmos 1869 Rocket 3.4 08:47:21 10° NNW 08:51:36 60° W 08:55:51 10° S
Hubble Space Telescope 3.1 08:49:25 10° SSW 08:52:09 17° SSE 08:54:54 10° ESE
Cosmos 1605 Rocket 4.2 08:48:59 10° NNW 08:55:02 47° W 09:01:05 10° SSW
Cosmos 1000 Rocket 4.4 08:48:49 10° S 08:55:04 77° W 09:01:15 10° N
H-2A R/B 2.7 08:52:34 10° SSW 08:56:20 31° W 09:00:10 10° NW
Meteor 1-31 Rocket 2.7 08:56:53 10° N 09:00:39 60° WNW 09:04:27 10° SSW
Cosmos 1570 Rocket 4.2 08:55:57 10° SSW 09:01:03 51° WNW 09:06:12 10° N
Sakura Rocket 3.0 09:04:29 24° W 09:06:35 47° SSW 09:10:06 10° SE
SJ 16-02 1.3 09:02:23 10° NNW 09:06:47 87° WSW 09:11:10 10° S
PSLV R/B 3.9 09:06:25 23° W 09:08:24 82° S 09:19:21 10° E
Cosmos 2360 Rocket 2.4 09:03:41 10° SW 09:09:06 49° WNW 09:14:35 10° N
Meteor PRIRODA 3.8 09:07:11 10° NNE 09:10:47 73° E 09:14:23 10° S
Meteor 2-20 4.4 09:05:23 10° S 09:11:30 71° W 09:17:36 10° N
Cosmos 1515 4.5 09:14:23 10° S 09:18:06 55° E 09:21:48 10° NNE
COSMO-SKYMED 1 4.4 09:15:40 10° SE 09:19:37 36° ENE 09:23:35 10° N
OAO 3 Rocket 3.9 09:15:11 10° SW 09:19:58 53° SE 09:24:48 10° ENE
CZ-4B R/B 1.4 09:17:10 10° S 09:20:05 46° W 09:23:05 10° NNW
CZ-2C R/B 4.4 09:21:35 10° WNW 09:22:41 11° WNW 09:23:04 11° WNW
Cosmos 2322 Rocket 3.7 09:22:34 12° W 09:24:51 15° WNW 09:28:03 10° NNW
SJ-12 4.1 09:21:36 10° N 09:25:36 50° WNW 09:29:36 10° SSW
Cosmos 2100 Rocket 4.0 09:23:37 10° N 09:29:55 68° W 09:36:12 10° S
Sylda 5 4.1 09:28:23 10° SW 09:31:31 25° SSE 09:37:31 10° ESE
Cosmos 1802 Rocket 4.1 09:26:19 10° N 09:32:33 89° E 09:38:52 10° S
Cosmos 1666 3.7 09:31:21 10° NW 09:34:30 25° W 09:37:37 10° SSW
Intercosmos 25 4.5 09:29:07 10° SSW 09:35:33 42° W 09:39:43 10° NNW
Cosmos 990 Rocket 4.0 09:30:53 10° NNW 09:36:02 67° WSW 09:41:12 10° S
Cosmos 2123 Rocket 4.1 09:31:18 10° SSW 09:37:21 55° W 09:43:26 10° N
Cosmos 2263 Rocket 2.5 09:37:14 10° NNW 09:42:39 48° WSW 09:48:04 10° S
ASC 2 Rocket 4.3 09:36:08 10° W 09:44:40 70° NNW 09:50:14 10° ENE
Chandra Rocket (1) 2.6 09:37:09 10° WNW 09:46:22 84° NNE 09:49:38 10° ESE
